EW7899 Weather Reports


Display with metric or nautical units.
time (UTC)temp
F
wind
direction
speed
MPH
gust
MPH
rain 1hr
in
rain 24hr
in
rain mn
in
humidity
%
barometer
mb
20260504234556 59 102 0.0 0.0 0.00 0.06 0.06 63 1001.3
20260504233109 60 102 0.0 0.0 0.00 0.06 0.06 61 1001.1
20260504231552 61 102 0.0 5.0 0.00 0.06 0.06 59 1001.1
20260504230051 62 75 0.0 2.0 0.00 0.06 0.06 57 1000.8
20260504224549 63 233 1.0 5.0 0.00 0.06 0.06 55 1000.7
20260504223050 63 49 1.0 10.0 0.00 0.06 0.06 52 1000.7
20260504221549 64 330 3.0 19.0 0.00 0.06 0.06 53 1000.7
20260504220049 65 325 0.0 16.0 0.00 0.06 0.06 51 1000.6
20260504214549 65 241 2.0 12.0 0.00 0.06 0.06 52 1000.6
20260504213050 66 290 0.0 9.0 0.00 0.06 0.06 52 1000.6
20260504211548 66 299 3.0 11.0 0.00 0.06 0.06 48 1000.5
20260504210047 66 185 3.0 11.0 0.00 0.06 0.06 49 1000.4
20260504204547 66 245 5.0 18.0 0.00 0.06 0.06 46 1000.6
20260504203049 66 239 2.0 10.0 0.00 0.06 0.06 51 1000.5
20260504201545 66 319 2.0 14.0 0.00 0.06 0.06 46 1000.5
20260504200043 67 258 7.0 18.0 0.00 0.06 0.06 48 1000.6
20260504194539 65 262 3.0 12.0 0.00 0.06 0.06 55 1000.7
20260504193036 64 294 8.0 19.0 0.00 0.06 0.06 51 1001.0
20260504191534 64 297 5.0 23.0 0.00 0.06 0.06 52 1001.0
20260504190031 63 266 2.0 13.0 0.00 0.06 0.06 58 1001.5
20260504184528 62 113 1.0 11.0 0.00 0.06 0.06 61 1001.5
20260504183026 61 152 0.0 9.0 0.00 0.06 0.06 59 1001.5
20260504181521 59 359 1.0 8.0 0.00 0.06 0.06 65 1002.0
20260504180018 58 50 0.0 0.0 0.00 0.06 0.06 69 1002.1
20260504174514 57 295 0.0 18.0 0.00 0.06 0.06 71 1002.3
20260504173017 57 300 1.0 12.0 0.00 0.06 0.06 69 1002.7
20260504171516 56 276 6.0 13.0 0.00 0.06 0.06 69 1002.8
20260504160114 52 213 1.0 8.0 0.00 0.06 0.06 80 1003.3
20260504081513 45 134 0.0 0.0 0.00 0.00 0.00 89 1003.7
20260504044547 42 195 0.0 1.0 0.00 0.00 0.00 77 1005.2
20260504043050 42 359 0.0 0.0 0.00 0.00 0.00 75 1005.4
20260504041542 41 185 0.0 7.0 0.00 0.00 0.00 74 1005.4
20260504040039 41 16 0.0 4.0 0.00 0.00 0.00 75 1005.2
20260504034538 39 131 3.0 10.0 0.00 0.00 0.00 76 1005.2
20260504033041 39 359 0.0 0.0 0.00 0.00 0.00 78 1005.2
20260504031541 39 227 0.0 0.0 0.00 0.00 0.00 79 1005.2
20260504030037 38 228 0.0 0.0 0.00 0.00 0.00 77 1005.4
20260504024537 38 229 0.0 0.0 0.00 0.00 0.00 76 1005.3
20260504023037 38 190 0.0 0.0 0.00 0.00 0.00 74 1005.5
20260504021537 39 190 0.0 2.0 0.00 0.00 0.00 75 1005.6
20260504020035 39 359 0.0 0.0 0.00 0.01 0.00 74 1005.5
20260504014539 39 359 0.0 0.0 0.00 0.01 0.00 73 1005.6
20260504013042 40 228 0.0 0.0 0.00 0.01 0.00 72 1005.7
20260504011537 41 228 0.0 0.0 0.00 0.01 0.00 71 1005.7
20260504010036 41 213 0.0 0.0 0.00 0.01 0.00 70 1005.7
20260504004533 42 100 0.0 0.0 0.00 0.01 0.00 67 1005.6
20260504003036 43 76 0.0 0.0 0.00 0.01 0.00 65 1005.5
20260504001538 44 126 0.0 0.0 0.00 0.01 0.00 62 1005.3
20260504000032 45 143 0.0 0.0 0.00 0.01 0.00 60 1005.2